User: anonymous   Login
Location: Brede
(50.9167°N, 0.6000°E)
Time: 18:37:26
(UTC+00:00)
Language:

ERBS - Orbit

View from above orbital plane
View from above orbital plane
View from above satellite
View from above satellite

Ground track
Ground track

The orbit data is extracted from the following two-line orbital elements,

1 15354U 84108B   20298.52583398  .00005822  00000-0  10857-3 0  9994
2 15354  57.0054 234.8062 0004808 330.4478  29.6308 15.50345313987849
Epoch (UTC): 24 October 2020 12:37:12
Eccentricity: 0.0004808
inclination: 57.0054°
perigee height: 412 km
apogee height: 419 km
right ascension of ascending node: 234.8062°
argument of perigee: 330.4478°
revolutions per day: 15.50345313
mean anomaly at epoch: 29.6308°
orbit number at epoch: 98784

The dashed part of the orbit path shows where the satellite is in the earth's shadow,  

DLR